| time (UTC) | temp F | wind direction | speed knots | gust knots | rain 1hr in | rain 24hr in | rain mn in | humidity % | barometer mb |
| 20260504212437 | 63 | 0 | 3.5 | 7.8 | 0.00 | 0.01 | 0.01 | 51 | 1005.1 |
| 20260504211936 | 63 | 0 | 4.3 | 7.8 | 0.00 | 0.01 | 0.01 | 49 | 1005.1 |
| 20260504211708 | 64 | 0 | 4.3 | 7.8 | 0.00 | 0.01 | 0.01 | 49 | 1005.1 |
| 20260504210935 | 64 | 0 | 4.3 | 7.8 | 0.00 | 0.01 | 0.01 | 48 | 1005.0 |
| 20260504210435 | 63 | 0 | 4.3 | 8.7 | 0.00 | 0.01 | 0.01 | 49 | 1005.0 |
| 20260504205932 | 63 | 0 | 4.3 | 10.4 | 0.00 | 0.01 | 0.01 | 49 | 1005.0 |
| 20260504205704 | 63 | 0 | 4.3 | 10.4 | 0.00 | 0.01 | 0.01 | 48 | 1004.9 |
| 20260504204931 | 64 | 0 | 4.3 | 9.6 | 0.00 | 0.01 | 0.01 | 48 | 1005.0 |
| 20260504204433 | 64 | 0 | 6.1 | 13.0 | 0.00 | 0.01 | 0.01 | 47 | 1005.0 |
| 20260504204203 | 65 | 0 | 5.2 | 13.0 | 0.00 | 0.01 | 0.01 | 46 | 1004.9 |
| 20260504203432 | 65 | 0 | 4.3 | 12.2 | 0.00 | 0.01 | 0.01 | 49 | 1004.9 |
| 20260504202933 | 64 | 0 | 5.2 | 12.2 | 0.00 | 0.01 | 0.01 | 49 | 1004.8 |
| 20260504202431 | 64 | 0 | 7.0 | 13.0 | 0.00 | 0.01 | 0.01 | 47 | 1004.9 |
| 20260504202203 | 64 | 0 | 9.6 | 16.5 | 0.00 | 0.01 | 0.01 | 49 | 1004.8 |
| 20260504201433 | 64 | 0 | 9.6 | 17.4 | 0.00 | 0.01 | 0.01 | 49 | 1004.9 |
| 20260504200933 | 64 | 0 | 7.0 | 17.4 | 0.00 | 0.01 | 0.01 | 47 | 1004.9 |
| 20260504200432 | 64 | 0 | 7.0 | 13.9 | 0.00 | 0.01 | 0.01 | 47 | 1004.9 |
| 20260504195931 | 64 | 0 | 7.0 | 13.9 | 0.00 | 0.01 | 0.01 | 48 | 1004.9 |
| 20260504195431 | 64 | 0 | 7.8 | 18.2 | 0.00 | 0.01 | 0.01 | 48 | 1005.0 |
| 20260504195201 | 64 | 0 | 8.7 | 18.2 | 0.00 | 0.01 | 0.01 | 47 | 1005.0 |
| 20260504194432 | 64 | 0 | 7.8 | 18.2 | 0.00 | 0.01 | 0.01 | 50 | 1004.9 |
| 20260504193930 | 64 | 0 | 7.8 | 18.2 | 0.00 | 0.01 | 0.01 | 48 | 1005.0 |
| 20260504193429 | 63 | 0 | 7.8 | 15.6 | 0.00 | 0.01 | 0.01 | 49 | 1005.1 |
| 20260504192932 | 63 | 0 | 7.0 | 15.6 | 0.00 | 0.01 | 0.01 | 50 | 1005.1 |
| 20260504192428 | 63 | 0 | 7.8 | 16.5 | 0.00 | 0.01 | 0.01 | 50 | 1005.0 |
| 20260504191927 | 63 | 0 | 7.0 | 16.5 | 0.00 | 0.01 | 0.01 | 50 | 1005.1 |
| 20260504191427 | 63 | 0 | 7.0 | 15.6 | 0.00 | 0.01 | 0.01 | 52 | 1005.1 |
| 20260504190928 | 63 | 0 | 7.8 | 15.6 | 0.00 | 0.01 | 0.01 | 53 | 1005.2 |
| 20260504190423 | 63 | 0 | 7.0 | 13.0 | 0.00 | 0.01 | 0.01 | 55 | 1005.1 |
| 20260504185924 | 63 | 0 | 5.2 | 11.3 | 0.00 | 0.01 | 0.01 | 54 | 1005.2 |
| 20260504185423 | 63 | 0 | 4.3 | 12.2 | 0.00 | 0.01 | 0.01 | 56 | 1005.1 |
| 20260504184921 | 62 | 0 | 5.2 | 12.2 | 0.00 | 0.01 | 0.01 | 57 | 1005.2 |
| 20260504184425 | 62 | 0 | 6.1 | 11.3 | 0.00 | 0.01 | 0.01 | 58 | 1005.3 |
| 20260504183920 | 61 | 0 | 5.2 | 10.4 | 0.00 | 0.01 | 0.01 | 62 | 1005.3 |
| 20260504183421 | 60 | 0 | 6.1 | 11.3 | 0.00 | 0.01 | 0.01 | 62 | 1005.3 |
| 20260504182918 | 60 | 0 | 5.2 | 11.3 | 0.00 | 0.01 | 0.01 | 63 | 1005.4 |
| 20260504182417 | 59 | 0 | 3.5 | 10.4 | 0.00 | 0.01 | 0.01 | 65 | 1005.3 |
| 20260504181920 | 58 | 0 | 3.5 | 7.8 | 0.00 | 0.01 | 0.01 | 72 | 1005.5 |
| 20260504181416 | 57 | 0 | 3.5 | 7.8 | 0.00 | 0.01 | 0.01 | 73 | 1005.5 |
| 20260504181146 | 55 | 0 | 3.5 | 7.8 | 0.01 | 0.01 | 0.01 | 77 | 1005.5 |
| 20260504180416 | 54 | 0 | 2.6 | 7.8 | 0.01 | 0.01 | 0.01 | 77 | 1005.6 |
| 20260504175915 | 54 | 0 | 2.6 | 7.0 | 0.01 | 0.01 | 0.01 | 78 | 1005.7 |
| 20260504175416 | 53 | 0 | 3.5 | 7.0 | 0.01 | 0.01 | 0.01 | 78 | 1005.7 |
| 20260504174917 | 53 | 0 | 3.5 | 7.8 | 0.01 | 0.01 | 0.01 | 79 | 1005.8 |
| 20260504174415 | 53 | 0 | 3.5 | 7.8 | 0.01 | 0.01 | 0.01 | 79 | 1005.8 |
| 20260504173913 | 53 | 0 | 3.5 | 7.8 | 0.01 | 0.01 | 0.01 | 79 | 1005.8 |
| 20260504173415 | 53 | 0 | 4.3 | 9.6 | 0.01 | 0.01 | 0.01 | 80 | 1005.9 |
| 20260504172913 | 53 | 0 | 4.3 | 9.6 | 0.01 | 0.01 | 0.01 | 80 | 1005.9 |
| 20260504172415 | 53 | 0 | 4.3 | 8.7 | 0.01 | 0.01 | 0.01 | 80 | 1006.0 |
| 20260504171914 | 53 | 0 | 4.3 | 13.9 | 0.01 | 0.01 | 0.01 | 78 | 1006.0 |
| 20260504171411 | 53 | 0 | 6.1 | 13.9 | 0.01 | 0.01 | 0.01 | 77 | 1006.2 |
| 20260504171144 | 53 | 0 | 6.1 | 12.2 | 0.00 | 0.00 | 0.00 | 75 | 1006.1 |
| 20260504170411 | 54 | 0 | 6.1 | 12.2 | 0.00 | 0.00 | 0.00 | 74 | 1006.0 |
| 20260504160411 | 61 | 0 | 3.5 | 11.3 | 0.00 | 0.00 | 0.00 | 50 | 1004.5 |
| 20260504151024 | 56 | 0 | 2.6 | 7.8 | 0.00 | 0.00 | 0.00 | 60 | 1005.4 |
| 20260504150911 | 56 | 0 | 2.6 | 7.0 | 0.00 | 0.00 | 0.00 | 59 | 1005.2 |
| 20260504150641 | 56 | 0 | 2.6 | 7.0 | 0.00 | 0.00 | 0.00 | 59 | 1005.3 |
| 20260504141132 | 55 | 0 | 2.6 | 5.2 | 0.00 | 0.00 | 0.00 | 61 | 1006.2 |
| 20260504140402 | 53 | 0 | 2.6 | 5.2 | 0.00 | 0.00 | 0.00 | 60 | 1006.3 |
| 20260504130631 | 47 | 0 | 1.7 | 4.3 | 0.00 | 0.00 | 0.00 | 64 | 1007.1 |
| 20260504110352 | 39 | 0 | 0.9 | 3.5 | 0.00 | 0.00 | 0.00 | 76 | 1007.6 |
| 20260504081831 | 33 | 0 | 0.0 | 2.6 | 0.00 | 0.00 | 0.00 | 79 | 1007.2 |
| 20260504081331 | 33 | 0 | 0.9 | 2.6 | 0.00 | 0.00 | 0.00 | 79 | 1007.2 |
| 20260504080829 | 33 | 0 | 0.9 | 2.6 | 0.00 | 0.00 | 0.00 | 79 | 1007.3 |
| 20260504080329 | 33 | 0 | 0.9 | 2.6 | 0.00 | 0.00 | 0.00 | 79 | 1007.4 |
| 20260504070319 | 34 | 0 | 0.9 | 2.6 | 0.00 | 0.00 | 0.00 | 79 | 1007.2 |
| 20260504050538 | 37 | 0 | 0.9 | 2.6 | 0.00 | 0.00 | 0.00 | 73 | 1007.0 |
| 20260504045807 | 37 | 0 | 0.9 | 2.6 | 0.00 | 0.00 | 0.00 | 73 | 1007.1 |
| 20260504045306 | 37 | 0 | 0.9 | 2.6 | 0.00 | 0.00 | 0.00 | 73 | 1007.0 |
| 20260504044805 | 37 | 0 | 0.9 | 1.7 | 0.00 | 0.00 | 0.00 | 72 | 1007.0 |
| 20260504044304 | 37 | 0 | 0.9 | 1.7 | 0.00 | 0.00 | 0.00 | 72 | 1007.0 |
| 20260504043806 | 37 | 0 | 0.9 | 1.7 | 0.00 | 0.00 | 0.00 | 72 | 1007.1 |
| 20260504043304 | 37 | 0 | 0.9 | 1.7 | 0.00 | 0.00 | 0.00 | 72 | 1007.1 |
| 20260504042804 | 37 | 0 | 0.9 | 2.6 | 0.00 | 0.00 | 0.00 | 71 | 1007.1 |
| 20260504042309 | 37 | 0 | 0.9 | 1.7 | 0.00 | 0.00 | 0.00 | 71 | 1007.1 |
| 20260504042304 | 37 | 0 | 0.9 | 2.6 | 0.00 | 0.00 | 0.00 | 71 | 1007.1 |
| 20260504041302 | 38 | 0 | 0.9 | 2.6 | 0.00 | 0.00 | 0.00 | 70 | 1007.1 |
| 20260504040805 | 38 | 0 | 0.9 | 2.6 | 0.00 | 0.00 | 0.00 | 70 | 1007.1 |
| 20260504040302 | 38 | 0 | 0.9 | 2.6 | 0.00 | 0.00 | 0.00 | 70 | 1007.1 |
| 20260504035803 | 38 | 0 | 0.9 | 2.6 | 0.00 | 0.00 | 0.00 | 70 | 1007.0 |
| 20260504035302 | 38 | 0 | 0.9 | 2.6 | 0.00 | 0.00 | 0.00 | 71 | 1007.0 |
| 20260504034802 | 38 | 0 | 0.9 | 3.5 | 0.00 | 0.00 | 0.00 | 71 | 1007.0 |
| 20260504034534 | 38 | 0 | 0.9 | 3.5 | 0.00 | 0.00 | 0.00 | 71 | 1006.9 |
| 20260504033800 | 38 | 0 | 0.9 | 2.6 | 0.00 | 0.00 | 0.00 | 70 | 1006.7 |
| 20260504033300 | 38 | 0 | 0.9 | 2.6 | 0.00 | 0.00 | 0.00 | 69 | 1006.7 |
| 20260504032802 | 38 | 0 | 0.9 | 2.6 | 0.00 | 0.00 | 0.00 | 69 | 1006.7 |
| 20260504032303 | 38 | 0 | 1.7 | 2.6 | 0.00 | 0.00 | 0.00 | 68 | 1006.8 |
| 20260504032031 | 38 | 0 | 1.7 | 2.6 | 0.00 | 0.00 | 0.00 | 67 | 1006.7 |
| 20260504031301 | 38 | 0 | 1.7 | 2.6 | 0.00 | 0.00 | 0.00 | 67 | 1006.8 |
| 20260504031032 | 38 | 0 | 1.7 | 5.2 | 0.00 | 0.00 | 0.00 | 68 | 1006.7 |
| 20260504030258 | 38 | 0 | 2.6 | 5.2 | 0.00 | 0.00 | 0.00 | 68 | 1006.7 |
| 20260504025759 | 38 | 0 | 1.7 | 4.3 | 0.00 | 0.00 | 0.00 | 68 | 1006.7 |
| 20260504025259 | 39 | 0 | 1.7 | 3.5 | 0.00 | 0.00 | 0.00 | 67 | 1006.7 |
| 20260504024759 | 39 | 0 | 1.7 | 3.5 | 0.00 | 0.00 | 0.00 | 65 | 1006.7 |
| 20260504024258 | 39 | 0 | 1.7 | 3.5 | 0.00 | 0.00 | 0.00 | 65 | 1006.7 |
| 20260504023758 | 40 | 0 | 1.7 | 4.3 | 0.00 | 0.00 | 0.00 | 65 | 1006.6 |
| 20260504023257 | 40 | 0 | 1.7 | 4.3 | 0.00 | 0.00 | 0.00 | 64 | 1006.6 |
| 20260504022755 | 40 | 0 | 1.7 | 3.5 | 0.00 | 0.00 | 0.00 | 64 | 1006.6 |
| 20260504022254 | 41 | 0 | 0.9 | 3.5 | 0.00 | 0.00 | 0.00 | 62 | 1006.6 |
| 20260504022022 | 41 | 0 | 0.9 | 2.6 | 0.00 | 0.00 | 0.00 | 61 | 1006.6 |
| 20260504021252 | 41 | 0 | 0.9 | 1.7 | 0.00 | 0.00 | 0.00 | 60 | 1006.6 |
| 20260504020752 | 41 | 0 | 0.9 | 2.6 | 0.00 | 0.00 | 0.00 | 60 | 1006.6 |
| 20260504020532 | 42 | 0 | 0.9 | 2.6 | 0.00 | 0.01 | 0.00 | 60 | 1006.6 |
| 20260504015751 | 42 | 0 | 0.9 | 3.5 | 0.00 | 0.01 | 0.00 | 59 | 1006.7 |
| 20260504015251 | 42 | 0 | 1.7 | 3.5 | 0.00 | 0.01 | 0.00 | 59 | 1006.6 |
| 20260504014752 | 42 | 0 | 1.7 | 3.5 | 0.00 | 0.01 | 0.00 | 59 | 1006.7 |
| 20260504014521 | 42 | 0 | 1.7 | 3.5 | 0.00 | 0.02 | 0.00 | 58 | 1006.6 |
| 20260504013749 | 42 | 0 | 1.7 | 5.2 | 0.00 | 0.02 | 0.00 | 58 | 1006.6 |
| 20260504013250 | 43 | 0 | 2.6 | 5.2 | 0.00 | 0.02 | 0.00 | 58 | 1006.6 |
| 20260504012749 | 43 | 0 | 2.6 | 7.8 | 0.00 | 0.02 | 0.00 | 57 | 1006.5 |
| 20260504012248 | 43 | 0 | 3.5 | 7.8 | 0.00 | 0.02 | 0.00 | 57 | 1006.5 |
| 20260504011750 | 43 | 0 | 3.5 | 8.7 | 0.00 | 0.02 | 0.00 | 56 | 1006.5 |
| 20260504011248 | 44 | 0 | 4.3 | 8.7 | 0.00 | 0.02 | 0.00 | 56 | 1006.3 |
| 20260504010745 | 44 | 0 | 5.2 | 9.6 | 0.00 | 0.02 | 0.00 | 55 | 1006.3 |
| 20260504010246 | 44 | 0 | 5.2 | 9.6 | 0.00 | 0.02 | 0.00 | 55 | 1006.2 |
| 20260504005744 | 44 | 0 | 5.2 | 12.2 | 0.00 | 0.02 | 0.00 | 54 | 1006.2 |
| 20260504005244 | 44 | 0 | 5.2 | 12.2 | 0.00 | 0.02 | 0.00 | 54 | 1006.0 |
| 20260504004742 | 44 | 0 | 5.2 | 9.6 | 0.00 | 0.02 | 0.00 | 54 | 1006.0 |
| 20260504004241 | 44 | 0 | 5.2 | 9.6 | 0.00 | 0.02 | 0.00 | 53 | 1005.8 |
| 20260504003743 | 44 | 0 | 5.2 | 9.6 | 0.00 | 0.02 | 0.00 | 53 | 1005.8 |
| 20260504003509 | 44 | 0 | 5.2 | 8.7 | 0.00 | 0.02 | 0.00 | 53 | 1005.7 |
| 20260504002738 | 45 | 0 | 4.3 | 9.6 | 0.00 | 0.02 | 0.00 | 53 | 1005.6 |
| 20260504002241 | 45 | 0 | 4.3 | 9.6 | 0.00 | 0.02 | 0.00 | 52 | 1005.5 |
| 20260504001740 | 45 | 0 | 4.3 | 8.7 | 0.00 | 0.02 | 0.00 | 53 | 1005.5 |
| 20260504001242 | 45 | 0 | 4.3 | 8.7 | 0.00 | 0.02 | 0.00 | 53 | 1005.5 |
| 20260504000740 | 45 | 0 | 5.2 | 9.6 | 0.00 | 0.02 | 0.00 | 52 | 1005.3 |
| 20260504000241 | 46 | 0 | 4.3 | 9.6 | 0.00 | 0.02 | 0.00 | 51 | 1005.3 |
| 20260503235739 | 46 | 0 | 3.5 | 8.7 | 0.00 | 0.02 | 0.00 | 50 | 1005.2 |
| 20260503235240 | 46 | 0 | 5.2 | 13.0 | 0.00 | 0.02 | 0.00 | 49 | 1005.1 |
| 20260503234739 | 46 | 0 | 7.0 | 15.6 | 0.00 | 0.02 | 0.00 | 49 | 1005.0 |
| 20260503234237 | 46 | 0 | 7.8 | 15.6 | 0.00 | 0.02 | 0.00 | 48 | 1004.9 |
| 20260503233736 | 46 | 0 | 8.7 | 15.6 | 0.00 | 0.02 | 0.00 | 48 | 1005.0 |
| 20260503233238 | 47 | 0 | 7.8 | 15.6 | 0.00 | 0.02 | 0.00 | 48 | 1004.8 |
| 20260503232738 | 47 | 0 | 6.1 | 13.0 | 0.00 | 0.02 | 0.00 | 48 | 1004.8 |
| 20260503232237 | 47 | 0 | 6.1 | 11.3 | 0.00 | 0.02 | 0.00 | 47 | 1004.7 |
| 20260503232005 | 47 | 0 | 7.0 | 14.8 | 0.00 | 0.03 | 0.00 | 47 | 1004.6 |
| 20260503231233 | 47 | 0 | 7.8 | 14.8 | 0.00 | 0.03 | 0.00 | 47 | 1004.5 |
| 20260503230730 | 47 | 0 | 7.8 | 13.9 | 0.00 | 0.03 | 0.00 | 46 | 1004.4 |
| 20260503230232 | 47 | 0 | 7.8 | 13.9 | 0.00 | 0.03 | 0.00 | 46 | 1004.5 |
| 20260503225728 | 47 | 0 | 7.8 | 16.5 | 0.00 | 0.03 | 0.00 | 46 | 1004.3 |
| 20260503225230 | 47 | 0 | 8.7 | 16.5 | 0.00 | 0.03 | 0.00 | 46 | 1004.4 |
| 20260503225001 | 48 | 0 | 9.6 | 17.4 | 0.00 | 0.03 | 0.00 | 45 | 1004.4 |
| 20260503224227 | 48 | 0 | 9.6 | 17.4 | 0.00 | 0.03 | 0.00 | 44 | 1004.3 |
| 20260503223728 | 49 | 0 | 7.8 | 17.4 | 0.00 | 0.03 | 0.00 | 44 | 1004.2 |
| 20260503223229 | 49 | 0 | 7.8 | 19.1 | 0.00 | 0.03 | 0.00 | 45 | 1004.1 |
| 20260503222727 | 49 | 0 | 7.8 | 19.1 | 0.00 | 0.03 | 0.00 | 46 | 1004.0 |
| 20260503222227 | 48 | 0 | 7.8 | 19.1 | 0.00 | 0.03 | 0.00 | 45 | 1003.9 |
| 20260503221728 | 49 | 0 | 9.6 | 20.9 | 0.00 | 0.03 | 0.00 | 44 | 1003.9 |
| 20260503221228 | 49 | 0 | 12.2 | 23.5 | 0.00 | 0.03 | 0.00 | 43 | 1003.9 |
| 20260503220726 | 50 | 0 | 12.2 | 23.5 | 0.00 | 0.04 | 0.00 | 41 | 1003.8 |
| 20260503220226 | 51 | 0 | 11.3 | 20.9 | 0.00 | 0.04 | 0.00 | 43 | 1003.7 |
| 20260503215727 | 51 | 0 | 10.4 | 21.7 | 0.00 | 0.04 | 0.00 | 42 | 1003.7 |
| 20260503215226 | 51 | 0 | 10.4 | 21.7 | 0.00 | 0.04 | 0.00 | 44 | 1003.6 |
| 20260503214726 | 51 | 0 | 10.4 | 20.0 | 0.00 | 0.04 | 0.00 | 42 | 1003.5 |
| 20260503214458 | 51 | 0 | 11.3 | 20.0 | 0.00 | 0.04 | 0.00 | 44 | 1003.5 |
| 20260503213727 | 50 | 0 | 12.2 | 20.0 | 0.00 | 0.04 | 0.00 | 43 | 1003.4 |
| 20260503213227 | 51 | 0 | 12.2 | 21.7 | 0.00 | 0.04 | 0.00 | 45 | 1003.5 |
| 20260503212728 | 51 | 0 | 11.3 | 21.7 | 0.00 | 0.04 | 0.00 | 43 | 1003.3 |